SWA2274 PHNL-PHOG

Flight info

Callsign SWA2274
Flight time 0h 23m
Altitude 13000
Route PALAY3 LNY V2 HARPO V17 OGG
Aircraft B38M/M-SDE1FGHILORVWXY/HB1

Departure

Time 2026-04-14 21:49
Airport Daniel K. Inouye International Airport (PHNL)

Arrival

Time 2026-04-14 22:12
Airport Kahului International Airport (PHOG)
Time Latitude Longitude Altitude Speed Heading
2026-04-14 21:24 21.33010 -157.92077 26 ft 0 kts 99°
2026-04-14 21:35 21.33010 -157.92078 26 ft 1 kts 99°
2026-04-14 21:35 21.33012 -157.92094 26 ft 3 kts 99°
2026-04-14 21:35 21.33016 -157.92115 26 ft 3 kts 93°
2026-04-14 21:36 21.33013 -157.92134 26 ft 3 kts 55°
2026-04-14 21:36 21.33000 -157.92145 26 ft 3 kts 14°
2026-04-14 21:36 21.32989 -157.92147 26 ft 2 kts
2026-04-14 21:36 21.32969 -157.92151 26 ft 3 kts
2026-04-14 21:37 21.32949 -157.92154 26 ft 3 kts
2026-04-14 21:37 21.32929 -157.92158 26 ft 3 kts
2026-04-14 21:37 21.32909 -157.92161 26 ft 3 kts
2026-04-14 21:37 21.32889 -157.92164 26 ft 3 kts
2026-04-14 21:38 21.32869 -157.92168 27 ft 3 kts
2026-04-14 21:38 21.32856 -157.92170 27 ft 2 kts
2026-04-14 21:38 21.32838 -157.92172 27 ft 3 kts
2026-04-14 21:38 21.32818 -157.92171 27 ft 3 kts 349°
2026-04-14 21:39 21.32799 -157.92165 27 ft 3 kts 333°
2026-04-14 21:39 21.32783 -157.92154 27 ft 3 kts 311°
2026-04-14 21:39 21.32774 -157.92137 27 ft 3 kts 278°
2026-04-14 21:39 21.32773 -157.92125 27 ft 2 kts 270°
2026-04-14 21:40 21.32773 -157.92104 27 ft 3 kts 270°
2026-04-14 21:40 21.32773 -157.92085 26 ft 1 kts 270°
2026-04-14 21:40 21.32773 -157.92083 26 ft 2 kts 270°
2026-04-14 21:42 21.32773 -157.92125 27 ft 13 kts 270°
2026-04-14 21:42 21.32774 -157.92209 27 ft 20 kts 270°
2026-04-14 21:42 21.32773 -157.92396 27 ft 30 kts 270°
2026-04-14 21:42 21.32771 -157.92628 27 ft 32 kts 270°
2026-04-14 21:43 21.32743 -157.92861 27 ft 30 kts 269°
2026-04-14 21:43 21.32744 -157.93087 27 ft 31 kts 269°
2026-04-14 21:43 21.32743 -157.93324 27 ft 32 kts 270°
2026-04-14 21:43 21.32741 -157.93539 27 ft 22 kts 269°
2026-04-14 21:44 21.32743 -157.93719 27 ft 28 kts 270°
2026-04-14 21:44 21.32741 -157.93953 27 ft 28 kts 269°
2026-04-14 21:44 21.32658 -157.94110 27 ft 29 kts 210°
2026-04-14 21:44 21.32462 -157.94226 27 ft 34 kts 209°
2026-04-14 21:45 21.32249 -157.94355 27 ft 36 kts 209°
2026-04-14 21:45 21.32028 -157.94487 27 ft 37 kts 209°
2026-04-14 21:45 21.31800 -157.94618 27 ft 38 kts 208°
2026-04-14 21:45 21.31561 -157.94659 27 ft 36 kts 163°
2026-04-14 21:46 21.31310 -157.94616 27 ft 37 kts 173°
2026-04-14 21:46 21.31051 -157.94583 27 ft 38 kts 173°
2026-04-14 21:46 21.30901 -157.94571 27 ft 13 kts 178°
2026-04-14 21:46 21.30824 -157.94569 27 ft 8 kts 179°
2026-04-14 21:47 21.30799 -157.94568 27 ft 0 kts 179°
2026-04-14 21:47 21.30780 -157.94568 27 ft 8 kts 179°
2026-04-14 21:47 21.30698 -157.94551 27 ft 15 kts 135°
2026-04-14 21:48 21.30682 -157.94445 30 ft 16 kts 90°
2026-04-14 21:48 21.30680 -157.94070 31 ft 89 kts 90°
2026-04-14 21:48 21.30681 -157.93158 21 ft 153 kts 90°
2026-04-14 21:48 21.30698 -157.91899 385 ft 177 kts 90°
2026-04-14 21:49 21.30609 -157.90595 1247 ft 172 kts 111°
2026-04-14 21:49 21.29861 -157.89626 1944 ft 180 kts 150°
2026-04-14 21:49 21.28594 -157.89282 2391 ft 200 kts 176°
2026-04-14 21:49 21.27115 -157.89239 2837 ft 226 kts 179°
2026-04-14 21:50 21.25457 -157.89217 3320 ft 250 kts 179°
2026-04-14 21:50 21.23646 -157.89205 3919 ft 269 kts 179°
2026-04-14 21:50 21.21798 -157.88916 4805 ft 269 kts 154°
2026-04-14 21:50 21.20386 -157.87651 5758 ft 270 kts 122°
2026-04-14 21:51 21.19770 -157.85748 6600 ft 274 kts 98°
2026-04-14 21:51 21.19353 -157.83734 7322 ft 282 kts 111°
2026-04-14 21:51 21.18638 -157.81762 8158 ft 286 kts 112°
2026-04-14 21:51 21.17944 -157.79745 8974 ft 291 kts 111°
2026-04-14 21:52 21.17255 -157.77683 9814 ft 296 kts 111°
2026-04-14 21:52 21.16558 -157.75570 10467 ft 308 kts 111°
2026-04-14 21:52 21.15826 -157.73339 10887 ft 326 kts 111°
2026-04-14 21:52 21.15073 -157.71027 11446 ft 339 kts 111°
2026-04-14 21:53 21.14299 -157.68632 12265 ft 342 kts 111°
2026-04-14 21:53 21.13501 -157.66152 12806 ft 358 kts 111°
2026-04-14 21:53 21.12667 -157.63564 12847 ft 376 kts 111°
2026-04-14 21:53 21.11818 -157.60917 12879 ft 384 kts 111°
2026-04-14 21:54 21.10945 -157.58188 12931 ft 390 kts 111°
2026-04-14 21:54 21.09771 -157.55590 12965 ft 386 kts 124°
2026-04-14 21:54 21.08369 -157.53128 12969 ft 388 kts 124°
2026-04-14 21:54 21.06974 -157.50656 12971 ft 388 kts 124°
2026-04-14 21:55 21.05574 -157.48179 12974 ft 388 kts 124°
2026-04-14 21:55 21.04175 -157.45703 12978 ft 389 kts 124°
2026-04-14 21:55 21.02775 -157.43228 12978 ft 389 kts 124°
2026-04-14 21:55 21.01374 -157.40753 12982 ft 389 kts 124°
2026-04-14 21:56 20.99973 -157.38278 12962 ft 388 kts 124°
2026-04-14 21:56 20.98607 -157.35865 12970 ft 371 kts 124°
2026-04-14 21:56 20.97295 -157.33549 12973 ft 356 kts 124°
2026-04-14 21:56 20.96028 -157.31315 12706 ft 349 kts 124°
2026-04-14 21:57 20.94766 -157.29089 12218 ft 350 kts 124°
2026-04-14 21:57 20.93499 -157.26856 11730 ft 352 kts 123°
2026-04-14 21:57 20.92229 -157.24618 11256 ft 352 kts 123°
2026-04-14 21:57 20.90960 -157.22381 10790 ft 353 kts 123°
2026-04-14 21:58 20.89681 -157.20131 10330 ft 353 kts 123°
2026-04-14 21:58 20.88420 -157.17911 10089 ft 341 kts 123°
2026-04-14 21:58 20.87238 -157.15832 10080 ft 315 kts 123°
2026-04-14 21:58 20.86141 -157.13903 10053 ft 293 kts 123°
2026-04-14 21:59 20.85101 -157.12073 9650 ft 285 kts 123°
2026-04-14 21:59 20.84079 -157.10276 9196 ft 279 kts 123°
2026-04-14 21:59 20.83088 -157.08535 8957 ft 266 kts 122°
2026-04-14 21:59 20.82132 -157.06858 8983 ft 269 kts 122°
2026-04-14 22:00 20.81175 -157.05178 8842 ft 262 kts 122°
2026-04-14 22:00 20.80213 -157.03491 8549 ft 269 kts 122°
2026-04-14 22:00 20.79233 -157.01769 8234 ft 273 kts 122°
2026-04-14 22:00 20.78245 -157.00035 7929 ft 273 kts 122°
2026-04-14 22:01 20.77258 -156.98304 7630 ft 272 kts 122°
2026-04-14 22:01 20.76363 -156.96532 7317 ft 271 kts 110°
2026-04-14 22:01 20.75824 -156.94608 7009 ft 269 kts 105°
2026-04-14 22:01 20.75319 -156.92716 6738 ft 268 kts 105°
2026-04-14 22:02 20.74807 -156.90808 6451 ft 266 kts 105°
2026-04-14 22:02 20.74297 -156.88918 6152 ft 264 kts 105°
2026-04-14 22:02 20.73790 -156.87041 5856 ft 262 kts 105°
2026-04-14 22:02 20.73286 -156.85173 5570 ft 261 kts 105°
2026-04-14 22:03 20.72784 -156.83319 5275 ft 259 kts 105°
2026-04-14 22:03 20.72287 -156.81481 4991 ft 257 kts 105°
2026-04-14 22:03 20.71791 -156.79651 4704 ft 256 kts 105°
2026-04-14 22:03 20.71298 -156.77830 4378 ft 254 kts 105°
2026-04-14 22:04 20.70808 -156.76023 4149 ft 253 kts 105°
2026-04-14 22:04 20.70317 -156.74214 4024 ft 254 kts 105°
2026-04-14 22:04 20.69825 -156.72402 3901 ft 254 kts 105°
2026-04-14 22:04 20.69335 -156.70593 3772 ft 254 kts 105°
2026-04-14 22:05 20.68844 -156.68787 3621 ft 253 kts 105°
2026-04-14 22:05 20.68355 -156.66986 3475 ft 252 kts 105°
2026-04-14 22:05 20.67865 -156.65186 3323 ft 252 kts 105°
2026-04-14 22:05 20.67377 -156.63392 3160 ft 252 kts 105°
2026-04-14 22:06 20.67191 -156.61553 3011 ft 250 kts 82°
2026-04-14 22:06 20.67799 -156.59838 2986 ft 249 kts 55°
2026-04-14 22:06 20.69020 -156.58543 2969 ft 249 kts 36°
2026-04-14 22:06 20.70427 -156.57458 2981 ft 250 kts 36°
2026-04-14 22:07 20.71838 -156.56390 2977 ft 245 kts 36°
2026-04-14 22:07 20.73204 -156.55365 2986 ft 231 kts 35°
2026-04-14 22:07 20.74462 -156.54423 2973 ft 213 kts 35°
2026-04-14 22:07 20.75667 -156.53522 2998 ft 211 kts 35°
2026-04-14 22:08 20.76874 -156.52621 2859 ft 209 kts 35°
2026-04-14 22:08 20.77945 -156.51822 2638 ft 199 kts 35°
2026-04-14 22:08 20.79044 -156.51002 2419 ft 185 kts 34°
2026-04-14 22:08 20.80065 -156.50239 2201 ft 175 kts 34°
2026-04-14 22:09 20.81060 -156.49498 1965 ft 171 kts 35°
2026-04-14 22:09 20.82003 -156.48792 1709 ft 159 kts 35°
2026-04-14 22:09 20.82880 -156.48135 1525 ft 151 kts 32°
2026-04-14 22:09 20.83728 -156.47505 1346 ft 146 kts 33°
2026-04-14 22:10 20.84559 -156.46883 1159 ft 145 kts 33°
2026-04-14 22:10 20.85367 -156.46279 942 ft 143 kts 33°
2026-04-14 22:10 20.86186 -156.45669 759 ft 143 kts 34°
2026-04-14 22:10 20.86993 -156.45061 586 ft 138 kts 32°
2026-04-14 22:11 20.87784 -156.44472 380 ft 139 kts 32°
2026-04-14 22:11 20.88574 -156.43886 173 ft 139 kts 32°
2026-04-14 22:11 20.89344 -156.43312 51 ft 125 kts 32°
2026-04-14 22:11 20.89889 -156.42911 46 ft 61 kts 35°
2026-04-14 22:12 20.90129 -156.42732 45 ft 32 kts 34°
2026-04-14 22:12 20.90316 -156.42595 47 ft 32 kts 34°
2026-04-14 22:12 20.90430 -156.42517 49 ft 11 kts 15°
2026-04-14 22:12 20.90480 -156.42573 48 ft 13 kts 253°
2026-04-14 22:13 20.90423 -156.42664 48 ft 17 kts 222°
2026-04-14 22:13 20.90322 -156.42746 46 ft 21 kts 215°
2026-04-14 22:13 20.90177 -156.42853 46 ft 29 kts 215°
2026-04-14 22:13 20.90006 -156.42981 47 ft 31 kts 214°
2026-04-14 22:14 20.89880 -156.43074 47 ft 21 kts 214°
2026-04-14 22:14 20.89752 -156.43169 47 ft 24 kts 215°
2026-04-14 22:14 20.89610 -156.43274 44 ft 26 kts 214°
2026-04-14 22:14 20.89456 -156.43390 47 ft 28 kts 215°
2026-04-14 22:15 20.89288 -156.43517 46 ft 31 kts 215°
2026-04-14 22:15 20.89177 -156.43601 47 ft 10 kts 216°
2026-04-14 22:15 20.89170 -156.43619 47 ft 10 kts 271°
2026-04-14 22:15 20.89212 -156.43701 47 ft 10 kts 305°
2026-04-14 22:16 20.89228 -156.43725 44 ft 4 kts 306°
2026-04-14 22:16 20.89228 -156.43726 44 ft 0 kts 306°